| time (UTC) | temp F | wind direction | speed knots | gust knots | rain 1hr in | rain 24hr in | rain mn in | humidity % | barometer mb |
| 20260506051145 | 65 | 18 | 5.2 | 7.8 | 0.00 | 0.00 | 0.00 | 76 | 1011.4 |
| 20260506050644 | 65 | 21 | 2.6 | 7.0 | 0.00 | 0.00 | 0.00 | 76 | 1011.3 |
| 20260506050140 | 65 | 306 | 5.2 | 7.0 | 0.00 | 0.00 | 0.00 | 76 | 1011.2 |
| 20260506045133 | 66 | 115 | 0.0 | 7.0 | 0.00 | 0.00 | 0.00 | 76 | 1010.8 |
| 20260506044631 | 66 | 257 | 2.6 | 6.1 | 0.00 | 0.00 | 0.00 | 75 | 1011.0 |
| 20260506044128 | 66 | 67 | 0.0 | 5.2 | 0.00 | 0.00 | 0.00 | 75 | 1010.9 |
| 20260506043625 | 66 | 348 | 4.3 | 7.0 | 0.00 | 0.00 | 0.00 | 75 | 1011.1 |
| 20260506043123 | 66 | 346 | 2.6 | 6.1 | 0.00 | 0.00 | 0.00 | 75 | 1011.2 |
| 20260506042622 | 67 | 28 | 6.1 | 7.8 | 0.00 | 0.00 | 0.00 | 74 | 1011.2 |
| 20260506042120 | 67 | 218 | 3.5 | 8.7 | 0.00 | 0.00 | 0.00 | 74 | 1011.1 |
| 20260506041618 | 68 | 0 | 3.5 | 7.8 | 0.00 | 0.00 | 0.00 | 73 | 1011.1 |
| 20260506041114 | 68 | 318 | 3.5 | 5.2 | 0.00 | 0.00 | 0.00 | 74 | 1010.8 |
| 20260506040612 | 68 | 291 | 5.2 | 9.6 | 0.00 | 0.00 | 0.00 | 74 | 1010.7 |
| 20260506040109 | 69 | 294 | 5.2 | 6.1 | 0.00 | 0.00 | 0.00 | 73 | 1010.9 |
| 20260506035606 | 69 | 353 | 6.1 | 7.8 | 0.00 | 0.00 | 0.00 | 73 | 1010.6 |
| 20260506035102 | 69 | 285 | 3.5 | 7.0 | 0.00 | 0.00 | 0.00 | 73 | 1010.2 |
| 20260506034600 | 69 | 244 | 0.9 | 4.3 | 0.00 | 0.00 | 0.00 | 73 | 1010.1 |
| 20260506034056 | 69 | 18 | 2.6 | 6.1 | 0.00 | 0.00 | 0.00 | 72 | 1010.0 |
| 20260506033554 | 70 | 319 | 4.3 | 7.0 | 0.00 | 0.00 | 0.00 | 71 | 1010.1 |
| 20260506033050 | 70 | 274 | 1.7 | 5.2 | 0.00 | 0.00 | 0.00 | 71 | 1010.0 |
| 20260506032548 | 70 | 356 | 3.5 | 11.3 | 0.00 | 0.00 | 0.00 | 70 | 1009.8 |
| 20260506032045 | 70 | 353 | 2.6 | 2.6 | 0.00 | 0.00 | 0.00 | 70 | 1009.5 |
| 20260506031542 | 70 | 308 | 2.6 | 8.7 | 0.00 | 0.00 | 0.00 | 70 | 1009.5 |
| 20260506031039 | 70 | 87 | 1.7 | 7.8 | 0.00 | 0.00 | 0.00 | 69 | 1009.5 |
| 20260506030537 | 70 | 345 | 1.7 | 6.1 | 0.00 | 0.00 | 0.00 | 70 | 1009.5 |
| 20260506030034 | 70 | 27 | 4.3 | 7.0 | 0.00 | 0.00 | 0.00 | 70 | 1009.2 |
| 20260506025531 | 70 | 345 | 2.6 | 7.8 | 0.00 | 0.00 | 0.00 | 70 | 1009.4 |
| 20260506025027 | 71 | 10 | 1.7 | 6.1 | 0.00 | 0.00 | 0.00 | 70 | 1009.4 |
| 20260506024524 | 71 | 343 | 2.6 | 7.0 | 0.00 | 0.00 | 0.00 | 70 | 1009.3 |
| 20260506024020 | 71 | 316 | 4.3 | 8.7 | 0.00 | 0.00 | 0.00 | 70 | 1009.1 |
| 20260506023516 | 72 | 349 | 6.1 | 8.7 | 0.00 | 0.00 | 0.00 | 69 | 1008.9 |
| 20260506023015 | 72 | 293 | 7.0 | 9.6 | 0.00 | 0.00 | 0.00 | 69 | 1008.8 |
| 20260506022512 | 72 | 341 | 6.1 | 9.6 | 0.00 | 0.00 | 0.00 | 68 | 1008.8 |
| 20260506022009 | 73 | 58 | 1.7 | 7.0 | 0.00 | 0.00 | 0.00 | 68 | 1008.4 |
| 20260506021506 | 73 | 264 | 4.3 | 9.6 | 0.00 | 0.00 | 0.00 | 68 | 1008.3 |
| 20260506021004 | 73 | 348 | 2.6 | 4.3 | 0.00 | 0.00 | 0.00 | 68 | 1008.1 |
| 20260506020501 | 73 | 334 | 3.5 | 8.7 | 0.00 | 0.00 | 0.00 | 68 | 1007.9 |
| 20260506015957 | 74 | 299 | 5.2 | 8.7 | 0.00 | 0.00 | 0.00 | 67 | 1007.9 |
| 20260506015455 | 74 | 9 | 2.6 | 5.2 | 0.00 | 0.00 | 0.00 | 67 | 1007.4 |
| 20260506014952 | 74 | 33 | 1.7 | 4.3 | 0.00 | 0.00 | 0.00 | 67 | 1007.4 |
| 20260506014449 | 75 | 43 | 2.6 | 7.0 | 0.00 | 0.00 | 0.00 | 67 | 1007.4 |
| 20260506013945 | 75 | 354 | 3.5 | 6.1 | 0.00 | 0.00 | 0.00 | 67 | 1007.0 |
| 20260506013444 | 75 | 307 | 1.7 | 7.0 | 0.00 | 0.00 | 0.00 | 67 | 1007.0 |
| 20260506012939 | 76 | 351 | 3.5 | 7.0 | 0.00 | 0.00 | 0.00 | 67 | 1007.1 |
| 20260506012436 | 76 | 332 | 1.7 | 6.1 | 0.00 | 0.00 | 0.00 | 66 | 1006.8 |
| 20260506011933 | 77 | 312 | 3.5 | 7.0 | 0.00 | 0.00 | 0.00 | 66 | 1006.6 |
| 20260506011431 | 77 | 54 | 2.6 | 6.1 | 0.00 | 0.00 | 0.00 | 65 | 1006.6 |
| 20260506010927 | 78 | 350 | 3.5 | 7.8 | 0.00 | 0.00 | 0.00 | 64 | 1006.7 |
| 20260506010426 | 78 | 355 | 1.7 | 4.3 | 0.00 | 0.00 | 0.00 | 63 | 1006.7 |
| 20260506005922 | 78 | 62 | 2.6 | 5.2 | 0.00 | 0.00 | 0.00 | 62 | 1006.5 |
| 20260506005420 | 79 | 23 | 3.5 | 4.3 | 0.00 | 0.00 | 0.00 | 62 | 1006.3 |
| 20260506004915 | 79 | 336 | 4.3 | 7.8 | 0.00 | 0.00 | 0.00 | 62 | 1006.3 |
| 20260506004413 | 79 | 2 | 0.9 | 4.3 | 0.00 | 0.00 | 0.00 | 62 | 1006.2 |
| 20260506003909 | 79 | 83 | 0.9 | 2.6 | 0.00 | 0.00 | 0.00 | 62 | 1006.1 |
| 20260506003405 | 79 | 313 | 1.7 | 6.1 | 0.00 | 0.00 | 0.00 | 61 | 1005.9 |
| 20260506002902 | 80 | 335 | 4.3 | 5.2 | 0.00 | 0.00 | 0.00 | 61 | 1006.0 |
| 20260506002358 | 80 | 9 | 2.6 | 6.1 | 0.00 | 0.00 | 0.00 | 61 | 1006.1 |
| 20260506001854 | 80 | 322 | 2.6 | 6.1 | 0.00 | 0.00 | 0.00 | 60 | 1006.0 |
| 20260506001351 | 81 | 25 | 3.5 | 8.7 | 0.00 | 0.00 | 0.00 | 59 | 1005.9 |
| 20260506000848 | 81 | 274 | 2.6 | 5.2 | 0.00 | 0.00 | 0.00 | 59 | 1006.0 |
| 20260506000346 | 82 | 311 | 1.7 | 6.1 | 0.00 | 0.00 | 0.00 | 58 | 1005.9 |
| 20260505235842 | 82 | 252 | 2.6 | 2.6 | 0.00 | 0.00 | 0.00 | 58 | 1005.9 |
| 20260505235340 | 82 | 252 | 2.6 | 5.2 | 0.00 | 0.00 | 0.00 | 57 | 1005.9 |
| 20260505234836 | 82 | 357 | 2.6 | 5.2 | 0.00 | 0.00 | 0.00 | 57 | 1005.6 |
| 20260505234335 | 83 | 24 | 6.1 | 7.8 | 0.00 | 0.00 | 0.00 | 57 | 1005.6 |
| 20260505233831 | 83 | 11 | 2.6 | 7.8 | 0.00 | 0.00 | 0.00 | 57 | 1005.5 |
| 20260505233329 | 84 | 7 | 2.6 | 7.8 | 0.00 | 0.00 | 0.00 | 57 | 1005.3 |
| 20260505232826 | 85 | 295 | 5.2 | 9.6 | 0.00 | 0.00 | 0.00 | 56 | 1005.4 |
| 20260505232324 | 87 | 13 | 2.6 | 6.1 | 0.00 | 0.00 | 0.00 | 52 | 1005.2 |
| 20260505231820 | 87 | 277 | 4.3 | 5.2 | 0.00 | 0.00 | 0.00 | 50 | 1005.3 |
| 20260505231318 | 87 | 273 | 2.6 | 4.3 | 0.00 | 0.00 | 0.00 | 49 | 1005.0 |
| 20260505230816 | 88 | 123 | 0.9 | 1.7 | 0.00 | 0.00 | 0.00 | 50 | 1005.0 |
| 20260505230313 | 88 | 273 | 2.6 | 5.2 | 0.00 | 0.00 | 0.00 | 49 | 1004.8 |
| 20260505225809 | 88 | 353 | 4.3 | 6.1 | 0.00 | 0.00 | 0.00 | 48 | 1004.8 |
| 20260505225307 | 88 | 264 | 1.7 | 5.2 | 0.00 | 0.00 | 0.00 | 47 | 1004.7 |
| 20260505224802 | 89 | 18 | 2.6 | 7.0 | 0.00 | 0.00 | 0.00 | 47 | 1004.6 |
| 20260505224300 | 92 | 301 | 3.5 | 6.1 | 0.00 | 0.00 | 0.00 | 46 | 1004.3 |
| 20260505223757 | 93 | 126 | 0.0 | 2.6 | 0.00 | 0.00 | 0.00 | 48 | 1004.4 |
| 20260505223254 | 94 | 126 | 0.0 | 0.9 | 0.00 | 0.00 | 0.00 | 45 | 1004.4 |
| 20260505222749 | 94 | 145 | 0.0 | 2.6 | 0.00 | 0.00 | 0.00 | 43 | 1004.5 |
| 20260505222246 | 95 | 168 | 0.9 | 1.7 | 0.00 | 0.00 | 0.00 | 43 | 1004.3 |
| 20260505221743 | 95 | 179 | 0.9 | 1.7 | 0.00 | 0.00 | 0.00 | 44 | 1004.3 |
| 20260505221240 | 95 | 207 | 0.9 | 4.3 | 0.00 | 0.00 | 0.00 | 44 | 1004.3 |
| 20260505220736 | 94 | 177 | 0.9 | 1.7 | 0.00 | 0.00 | 0.00 | 44 | 1004.1 |
| 20260505220234 | 93 | 188 | 0.9 | 2.6 | 0.00 | 0.00 | 0.00 | 45 | 1004.4 |
| 20260505215732 | 94 | 166 | 0.0 | 0.9 | 0.00 | 0.00 | 0.00 | 44 | 1004.1 |
| 20260505215229 | 93 | 149 | 0.9 | 2.6 | 0.00 | 0.00 | 0.00 | 46 | 1004.1 |
| 20260505214727 | 93 | 335 | 0.9 | 6.1 | 0.00 | 0.00 | 0.00 | 45 | 1004.2 |
| 20260505214224 | 93 | 158 | 0.9 | 1.7 | 0.00 | 0.00 | 0.00 | 44 | 1004.2 |
| 20260505213721 | 93 | 148 | 0.9 | 6.1 | 0.00 | 0.00 | 0.00 | 45 | 1004.4 |
| 20260505213219 | 93 | 144 | 0.9 | 2.6 | 0.00 | 0.00 | 0.00 | 45 | 1004.4 |
| 20260505212714 | 93 | 133 | 0.0 | 0.9 | 0.00 | 0.00 | 0.00 | 47 | 1004.3 |
| 20260505212212 | 92 | 92 | 0.9 | 0.9 | 0.00 | 0.00 | 0.00 | 47 | 1004.4 |
| 20260505211708 | 92 | 112 | 0.9 | 1.7 | 0.00 | 0.00 | 0.00 | 46 | 1004.5 |
| 20260505211206 | 92 | 134 | 0.9 | 5.2 | 0.00 | 0.00 | 0.00 | 45 | 1004.6 |
| 20260505210702 | 92 | 192 | 0.9 | 1.7 | 0.00 | 0.00 | 0.00 | 45 | 1004.7 |
| 20260505210159 | 93 | 154 | 0.9 | 1.7 | 0.00 | 0.00 | 0.00 | 47 | 1004.7 |
| 20260505205657 | 92 | 143 | 0.9 | 0.9 | 0.00 | 0.00 | 0.00 | 47 | 1004.9 |
| 20260505205155 | 93 | 111 | 0.9 | 4.3 | 0.00 | 0.00 | 0.00 | 48 | 1005.0 |
| 20260505204651 | 93 | 251 | 2.6 | 5.2 | 0.00 | 0.00 | 0.00 | 48 | 1005.3 |
| 20260505204149 | 92 | 128 | 0.9 | 0.9 | 0.00 | 0.00 | 0.00 | 52 | 1005.0 |
| 20260505203646 | 93 | 224 | 1.7 | 2.6 | 0.00 | 0.00 | 0.00 | 50 | 1004.9 |
| 20260505203142 | 92 | 158 | 0.9 | 1.7 | 0.00 | 0.00 | 0.00 | 51 | 1005.0 |
| 20260505202638 | 91 | 180 | 0.9 | 2.6 | 0.00 | 0.00 | 0.00 | 51 | 1005.2 |
| 20260505202134 | 91 | 184 | 1.7 | 2.6 | 0.00 | 0.00 | 0.00 | 52 | 1005.4 |
| 20260505201625 | 90 | 160 | 0.9 | 2.6 | 0.00 | 0.00 | 0.00 | 53 | 1005.5 |
| 20260505201118 | 90 | 189 | 1.7 | 2.6 | 0.00 | 0.00 | 0.00 | 54 | 1005.5 |
| 20260505200615 | 90 | 116 | 0.9 | 1.7 | 0.00 | 0.00 | 0.00 | 54 | 1005.4 |
| 20260505200112 | 90 | 147 | 1.7 | 1.7 | 0.00 | 0.00 | 0.00 | 55 | 1005.2 |
| 20260505195608 | 90 | 203 | 1.7 | 2.6 | 0.00 | 0.00 | 0.00 | 54 | 1005.6 |
| 20260505195106 | 91 | 225 | 0.9 | 1.7 | 0.00 | 0.00 | 0.00 | 53 | 1005.4 |
| 20260505194602 | 91 | 186 | 1.7 | 2.6 | 0.00 | 0.00 | 0.00 | 54 | 1005.5 |
| 20260505194052 | 90 | 122 | 0.9 | 5.2 | 0.00 | 0.00 | 0.00 | 54 | 1005.6 |
| 20260505193550 | 90 | 162 | 2.6 | 5.2 | 0.00 | 0.00 | 0.00 | 53 | 1005.5 |
| 20260505193046 | 89 | 215 | 1.7 | 4.3 | 0.00 | 0.00 | 0.00 | 55 | 1005.6 |
| 20260505192545 | 89 | 260 | 2.6 | 4.3 | 0.00 | 0.00 | 0.00 | 56 | 1005.7 |
| 20260505192042 | 89 | 239 | 2.6 | 4.3 | 0.00 | 0.00 | 0.00 | 55 | 1005.4 |
| 20260505191540 | 89 | 217 | 1.7 | 2.6 | 0.00 | 0.00 | 0.00 | 56 | 1005.5 |
| 20260505191038 | 89 | 165 | 0.9 | 2.6 | 0.00 | 0.00 | 0.00 | 57 | 1005.6 |
| 20260505190532 | 89 | 201 | 1.7 | 2.6 | 0.00 | 0.00 | 0.00 | 57 | 1005.5 |
| 20260505190029 | 89 | 172 | 0.9 | 4.3 | 0.00 | 0.00 | 0.00 | 57 | 1005.6 |
| 20260505185526 | 89 | 111 | 0.0 | 5.2 | 0.00 | 0.00 | 0.00 | 59 | 1005.7 |
| 20260505185022 | 88 | 129 | 1.7 | 5.2 | 0.00 | 0.00 | 0.00 | 58 | 1005.9 |
| 20260505184519 | 88 | 191 | 2.6 | 4.3 | 0.00 | 0.00 | 0.00 | 58 | 1005.6 |
| 20260505184016 | 89 | 132 | 2.6 | 2.6 | 0.00 | 0.00 | 0.00 | 59 | 1005.9 |
| 20260505183513 | 87 | 259 | 2.6 | 5.2 | 0.00 | 0.00 | 0.00 | 61 | 1006.0 |
| 20260505183010 | 87 | 192 | 1.7 | 5.2 | 0.00 | 0.00 | 0.00 | 62 | 1005.8 |
| 20260505182506 | 87 | 283 | 2.6 | 4.3 | 0.00 | 0.00 | 0.00 | 61 | 1005.9 |
| 20260505182003 | 87 | 220 | 2.6 | 6.1 | 0.00 | 0.00 | 0.00 | 60 | 1005.8 |
| 20260505181500 | 87 | 136 | 0.9 | 4.3 | 0.00 | 0.00 | 0.00 | 62 | 1005.9 |
| 20260505180956 | 86 | 155 | 1.7 | 2.6 | 0.00 | 0.00 | 0.00 | 62 | 1006.0 |
| 20260505180452 | 86 | 170 | 1.7 | 5.2 | 0.00 | 0.00 | 0.00 | 63 | 1006.1 |
| 20260505175950 | 86 | 115 | 2.6 | 4.3 | 0.00 | 0.00 | 0.00 | 62 | 1006.1 |
| 20260505175445 | 86 | 185 | 2.6 | 4.3 | 0.00 | 0.00 | 0.00 | 63 | 1006.1 |
| 20260505174942 | 85 | 181 | 1.7 | 2.6 | 0.00 | 0.00 | 0.00 | 63 | 1006.1 |
| 20260505174440 | 85 | 228 | 2.6 | 6.1 | 0.00 | 0.00 | 0.00 | 64 | 1006.3 |
| 20260505173936 | 86 | 113 | 2.6 | 4.3 | 0.00 | 0.00 | 0.00 | 63 | 1006.2 |
| 20260505173432 | 86 | 165 | 1.7 | 4.3 | 0.00 | 0.00 | 0.00 | 63 | 1006.1 |
| 20260505172929 | 85 | 216 | 1.7 | 4.3 | 0.00 | 0.00 | 0.00 | 64 | 1006.2 |
| 20260505172428 | 84 | 189 | 1.7 | 4.3 | 0.00 | 0.00 | 0.00 | 66 | 1006.2 |
| 20260505171926 | 83 | 152 | 1.7 | 5.2 | 0.00 | 0.00 | 0.00 | 67 | 1006.2 |
| 20260505171424 | 83 | 180 | 0.9 | 2.6 | 0.00 | 0.00 | 0.00 | 67 | 1006.3 |
| 20260505170920 | 83 | 219 | 1.7 | 4.3 | 0.00 | 0.00 | 0.00 | 67 | 1006.3 |
| 20260505170417 | 84 | 88 | 0.9 | 4.3 | 0.00 | 0.00 | 0.00 | 66 | 1006.3 |
| 20260505165912 | 84 | 158 | 1.7 | 4.3 | 0.00 | 0.00 | 0.00 | 65 | 1006.3 |
| 20260505165409 | 84 | 213 | 2.6 | 4.3 | 0.00 | 0.00 | 0.00 | 65 | 1006.5 |
| 20260505164904 | 84 | 126 | 0.9 | 2.6 | 0.00 | 0.00 | 0.00 | 66 | 1006.4 |
| 20260505164401 | 84 | 198 | 1.7 | 2.6 | 0.00 | 0.00 | 0.00 | 66 | 1006.4 |
| 20260505163859 | 83 | 201 | 1.7 | 2.6 | 0.00 | 0.00 | 0.00 | 67 | 1006.4 |
| 20260505163358 | 83 | 188 | 2.6 | 4.3 | 0.00 | 0.00 | 0.00 | 68 | 1006.2 |
| 20260505162856 | 83 | 196 | 1.7 | 6.1 | 0.00 | 0.00 | 0.00 | 68 | 1005.8 |
| 20260505162352 | 83 | 208 | 4.3 | 7.0 | 0.00 | 0.00 | 0.00 | 67 | 1005.8 |
| 20260505161849 | 84 | 170 | 1.7 | 2.6 | 0.00 | 0.00 | 0.00 | 67 | 1005.9 |
| 20260505161346 | 82 | 165 | 1.7 | 8.7 | 0.00 | 0.00 | 0.00 | 69 | 1005.8 |
| 20260505160843 | 82 | 246 | 2.6 | 6.1 | 0.00 | 0.00 | 0.00 | 70 | 1006.0 |
| 20260505160341 | 82 | 168 | 2.6 | 4.3 | 0.00 | 0.00 | 0.00 | 71 | 1006.0 |
| 20260505140358 | 75 | 154 | 2.6 | 7.0 | 0.00 | 0.00 | 0.00 | 80 | 1006.1 |
| 20260505124812 | 71 | 208 | 0.9 | 1.7 | 0.00 | 0.00 | 0.00 | 87 | 1006.0 |
| 20260505124309 | 71 | 144 | 1.7 | 2.6 | 0.00 | 0.00 | 0.00 | 88 | 1005.9 |
| 20260505123804 | 71 | 161 | 0.0 | 1.7 | 0.00 | 0.00 | 0.00 | 88 | 1006.0 |
| 20260505123301 | 71 | 175 | 0.9 | 1.7 | 0.00 | 0.00 | 0.00 | 89 | 1005.6 |
| 20260505122757 | 70 | 161 | 0.0 | 1.7 | 0.00 | 0.00 | 0.00 | 89 | 1005.8 |
| 20260505122255 | 70 | 156 | 0.9 | 4.3 | 0.00 | 0.00 | 0.00 | 89 | 1005.8 |
| 20260505121751 | 70 | 111 | 0.9 | 5.2 | 0.00 | 0.00 | 0.00 | 89 | 1005.8 |
| 20260505121248 | 70 | 179 | 0.9 | 1.7 | 0.00 | 0.00 | 0.00 | 89 | 1005.8 |
| 20260505120744 | 70 | 191 | 1.7 | 2.6 | 0.00 | 0.00 | 0.00 | 89 | 1005.4 |
| 20260505120241 | 70 | 188 | 0.9 | 4.3 | 0.00 | 0.00 | 0.00 | 89 | 1005.4 |
| 20260505115739 | 70 | 150 | 1.7 | 2.6 | 0.00 | 0.00 | 0.00 | 90 | 1005.5 |
| 20260505115237 | 70 | 187 | 2.6 | 4.3 | 0.00 | 0.00 | 0.00 | 90 | 1005.5 |
| 20260505114734 | 70 | 212 | 0.9 | 2.6 | 0.00 | 0.00 | 0.00 | 89 | 1005.6 |
| 20260505114230 | 70 | 162 | 1.7 | 4.3 | 0.00 | 0.00 | 0.00 | 90 | 1005.6 |
| 20260505113727 | 70 | 119 | 2.6 | 4.3 | 0.00 | 0.00 | 0.00 | 90 | 1005.3 |
| 20260505113223 | 70 | 212 | 0.9 | 5.2 | 0.00 | 0.00 | 0.00 | 90 | 1005.3 |
| 20260505112719 | 70 | 177 | 0.9 | 4.3 | 0.00 | 0.00 | 0.00 | 90 | 1005.3 |
| 20260505112217 | 70 | 136 | 0.0 | 0.9 | 0.00 | 0.00 | 0.00 | 90 | 1005.4 |
| 20260505111712 | 70 | 159 | 1.7 | 1.7 | 0.00 | 0.00 | 0.00 | 89 | 1005.3 |
| 20260505111208 | 70 | 115 | 1.7 | 2.6 | 0.00 | 0.00 | 0.00 | 89 | 1005.5 |
| 20260505110704 | 70 | 198 | 1.7 | 2.6 | 0.00 | 0.00 | 0.00 | 89 | 1005.4 |
| 20260505110202 | 70 | 196 | 0.9 | 1.7 | 0.00 | 0.00 | 0.00 | 89 | 1005.3 |
| 20260505102137 | 70 | 137 | 0.9 | 6.1 | 0.00 | 0.00 | 0.00 | 88 | 1005.0 |
| 20260505101636 | 71 | 171 | 1.7 | 6.1 | 0.00 | 0.00 | 0.00 | 88 | 1005.0 |
| 20260505101132 | 71 | 110 | 0.9 | 2.6 | 0.00 | 0.00 | 0.00 | 88 | 1005.1 |
| 20260505100628 | 71 | 78 | 3.5 | 5.2 | 0.00 | 0.00 | 0.00 | 88 | 1005.3 |
| 20260505100125 | 71 | 125 | 0.0 | 2.6 | 0.00 | 0.00 | 0.00 | 88 | 1005.4 |
| 20260505095621 | 71 | 170 | 2.6 | 4.3 | 0.00 | 0.00 | 0.00 | 88 | 1005.3 |
| 20260505095118 | 71 | 117 | 1.7 | 4.3 | 0.00 | 0.00 | 0.00 | 88 | 1005.3 |
| 20260505094614 | 71 | 203 | 1.7 | 8.7 | 0.00 | 0.00 | 0.00 | 87 | 1005.4 |
| 20260505094111 | 71 | 177 | 4.3 | 7.0 | 0.00 | 0.00 | 0.00 | 87 | 1005.4 |
| 20260505093607 | 71 | 117 | 2.6 | 2.6 | 0.00 | 0.00 | 0.00 | 87 | 1005.6 |
| 20260505093104 | 71 | 222 | 1.7 | 2.6 | 0.00 | 0.00 | 0.00 | 87 | 1005.4 |
| 20260505092601 | 71 | 216 | 1.7 | 13.0 | 0.00 | 0.00 | 0.00 | 87 | 1005.4 |
| 20260505092100 | 71 | 171 | 3.5 | 4.3 | 0.00 | 0.00 | 0.00 | 87 | 1005.4 |
| 20260505091556 | 71 | 107 | 0.9 | 5.2 | 0.00 | 0.00 | 0.00 | 86 | 1005.5 |
| 20260505091055 | 71 | 175 | 4.3 | 7.8 | 0.00 | 0.00 | 0.00 | 86 | 1005.4 |
| 20260505090552 | 71 | 71 | 2.6 | 5.2 | 0.00 | 0.00 | 0.00 | 86 | 1005.7 |
| 20260505090050 | 71 | 169 | 1.7 | 2.6 | 0.00 | 0.00 | 0.00 | 86 | 1005.7 |
| 20260505085548 | 71 | 129 | 0.9 | 4.3 | 0.00 | 0.00 | 0.00 | 86 | 1005.5 |
| 20260505085046 | 71 | 62 | 0.9 | 2.6 | 0.00 | 0.00 | 0.00 | 86 | 1005.4 |
| 20260505084543 | 71 | 133 | 0.9 | 2.6 | 0.00 | 0.00 | 0.00 | 85 | 1005.6 |
| 20260505084041 | 72 | 111 | 1.7 | 4.3 | 0.00 | 0.00 | 0.00 | 85 | 1005.6 |
| 20260505083538 | 72 | 138 | 1.7 | 8.7 | 0.00 | 0.00 | 0.00 | 85 | 1005.6 |
| 20260505083035 | 72 | 202 | 2.6 | 2.6 | 0.00 | 0.00 | 0.00 | 85 | 1005.5 |
| 20260505082530 | 72 | 164 | 2.6 | 4.3 | 0.00 | 0.00 | 0.00 | 84 | 1005.3 |
| 20260505082027 | 72 | 259 | 0.9 | 1.7 | 0.00 | 0.00 | 0.00 | 84 | 1005.6 |
| 20260505081524 | 72 | 168 | 0.9 | 4.3 | 0.00 | 0.00 | 0.00 | 84 | 1005.6 |
| 20260505081021 | 72 | 180 | 0.9 | 7.8 | 0.00 | 0.00 | 0.00 | 84 | 1005.6 |
| 20260505080517 | 72 | 193 | 3.5 | 7.0 | 0.00 | 0.00 | 0.00 | 83 | 1005.7 |
| 20260505080014 | 72 | 147 | 0.9 | 6.1 | 0.00 | 0.00 | 0.00 | 83 | 1005.9 |
| 20260505075510 | 72 | 157 | 2.6 | 2.6 | 0.00 | 0.00 | 0.00 | 83 | 1005.9 |
| 20260505075007 | 73 | 120 | 0.9 | 5.2 | 0.00 | 0.00 | 0.00 | 83 | 1005.8 |
| 20260505074504 | 73 | 124 | 1.7 | 4.3 | 0.00 | 0.00 | 0.00 | 83 | 1006.0 |
| 20260505074001 | 73 | 186 | 1.7 | 4.3 | 0.00 | 0.00 | 0.00 | 82 | 1005.9 |
| 20260505073459 | 73 | 154 | 1.7 | 4.3 | 0.00 | 0.00 | 0.00 | 82 | 1006.1 |
| 20260505072956 | 73 | 129 | 0.9 | 2.6 | 0.00 | 0.00 | 0.00 | 82 | 1006.1 |
| 20260505072452 | 73 | 172 | 1.7 | 1.7 | 0.00 | 0.00 | 0.00 | 82 | 1006.2 |
| 20260505071948 | 73 | 144 | 0.9 | 6.1 | 0.00 | 0.00 | 0.00 | 81 | 1006.2 |
| 20260505071444 | 73 | 154 | 3.5 | 5.2 | 0.00 | 0.00 | 0.00 | 81 | 1006.3 |
| 20260505070943 | 73 | 140 | 0.9 | 2.6 | 0.00 | 0.00 | 0.00 | 81 | 1006.3 |
| 20260505070439 | 73 | 146 | 2.6 | 6.1 | 0.00 | 0.00 | 0.00 | 81 | 1006.3 |
| 20260505065935 | 73 | 130 | 0.9 | 5.2 | 0.00 | 0.00 | 0.00 | 80 | 1006.5 |
| 20260505065431 | 73 | 127 | 0.9 | 2.6 | 0.00 | 0.00 | 0.00 | 80 | 1006.5 |
| 20260505064928 | 73 | 185 | 2.6 | 7.0 | 0.00 | 0.00 | 0.00 | 80 | 1006.6 |
| 20260505064425 | 73 | 191 | 3.5 | 5.2 | 0.00 | 0.00 | 0.00 | 79 | 1006.8 |
| 20260505063923 | 73 | 132 | 1.7 | 1.7 | 0.00 | 0.00 | 0.00 | 78 | 1006.8 |
| 20260505063420 | 73 | 184 | 0.9 | 5.2 | 0.00 | 0.00 | 0.00 | 78 | 1007.0 |
| 20260505062916 | 73 | 123 | 0.9 | 2.6 | 0.00 | 0.00 | 0.00 | 78 | 1006.8 |
| 20260505062414 | 74 | 213 | 2.6 | 4.3 | 0.00 | 0.00 | 0.00 | 78 | 1007.0 |
| 20260505061910 | 74 | 139 | 1.7 | 5.2 | 0.00 | 0.00 | 0.00 | 77 | 1006.9 |
| 20260505061409 | 74 | 181 | 0.9 | 8.7 | 0.00 | 0.00 | 0.00 | 76 | 1006.8 |
| 20260505060906 | 74 | 145 | 0.9 | 2.6 | 0.00 | 0.00 | 0.00 | 76 | 1006.8 |
| 20260505060402 | 74 | 175 | 1.7 | 2.6 | 0.00 | 0.00 | 0.00 | 76 | 1006.8 |
| 20260505055858 | 74 | 115 | 1.7 | 5.2 | 0.00 | 0.00 | 0.00 | 76 | 1006.8 |